Tracking 32418 objects as of 9-Dec-2025
HD Live streaming from Space Station
objects crossing your sky now

GLOBALSTAR M055

Track GLOBALSTAR M055 now!
10-day predictions
GLOBALSTAR M055 is classified as:


NORAD ID: 25910
Int'l Code: 1999-049D
Perigee: 1,552.8 km
Apogee: 1,564.8 km
Inclination: 52.0 °
Period: 117.1 minutes
Semi major axis: 7929 km
RCS: 2.0613 m2 (large)
Launch date: September 22, 1999
Source: Globalstar (GLOB)
Launch site: TYURATAM MISSILE AND SPACE COMPLEX (TTMTR)
Your satellite tracking list
Your tracking list is empty




NASA's NSSDC Master Catalog

Two Line Element Set (TLE):
1 25910U 99049D   25343.05228421 -.00000060  00000-0  29671-3 0  9994
2 25910  52.0004 218.8348 0007558 127.1261 233.0282 12.29437618189796
Source of the keplerian elements: AFSPC